Weather reports worldwide

Advertisment
Estepona, Spain (8463): temperature & dewpoint: 04.12.2018 10:00:00 - 10.12.2018 10:00:00 (CET)Estepona, Spain (8463): wind speed & gusts: 04.12.2018 10:00:00 - 10.12.2018 10:00:00 (CET)Estepona, Spain (8463): wind direction: 04.12.2018 10:00:00 - 10.12.2018 10:00:00 (CET)Estepona, Spain (8463): reduced air pressure: 04.12.2018 10:00:00 - 10.12.2018 10:00:00 (CET)Estepona, Spain (8463): visibility: 04.12.2018 10:00:00 - 10.12.2018 10:00:00 (CET)Estepona, Spain (8463): sunshine duration: 04.12.2018 10:00:00 - 10.12.2018 10:00:00 (CET)Estepona, Spain (8463): precipitation: 04.12.2018 10:00:00 - 10.12.2018 10:00:00 (CET)
Date & Time tt [°C] td [°C] ff [km/h] ff [kn] fx [km/h] fx [kn] dd ppp [hPa] vv [km] sd [min] rr [mm]
10.12.2018 10:00:00 12,8 10,9 2 1 6 3 SW 1028,9 0,7 7 0,0
10.12.2018 09:00:00 11,5 9,6 2 1 8 4 WSW 1028,5 0,4 0 0,0
10.12.2018 08:00:00 12,0 10,0 3 1 7 4 N 1028,2 0,2 0 0,0
10.12.2018 07:00:00 10,9 8,8 3 2 5 3 NNW 1028,1 0,6 0 -
10.12.2018 06:00:00 10,9 8,8 1 1 3 1 SW 1027,8 0,4 0 0,0
10.12.2018 05:00:00 11,0 8,9 0 0 4 2 N 1027,8 0,5 0 0,0
10.12.2018 04:00:00 11,2 8,9 0 0 4 2 N 1028,3 0,6 0 0,0
10.12.2018 03:00:00 11,4 9,2 0 0 2 1 N 1028,7 0,5 0 0,0
10.12.2018 02:00:00 11,6 9,3 0 0 4 2 N 1028,7 0,6 0 0,0
10.12.2018 01:00:00 12,2 9,8 3 2 8 4 NNW 1029,3 0,8 0 -
10.12.2018 00:00:00 12,8 10,3 5 3 7 4 NNW 1029,7 0,9 0 0,0
09.12.2018 23:00:00 12,2 9,6 2 1 5 3 W 1029,7 0,5 0 0,0
09.12.2018 22:00:00 12,5 9,7 2 1 4 2 WNW 1029,7 0,7 0 0,0
09.12.2018 21:00:00 13,2 10,2 1 1 6 4 NW 1029,7 0,6 0 0,0
09.12.2018 20:00:00 13,6 10,4 2 1 4 2 NW 1029,5 0,7 0 0,0
09.12.2018 19:00:00 14,3 10,9 1 1 6 4 W 1029,3 0,6 0 -
09.12.2018 18:00:00 15,6 11,8 5 3 11 6 ENE 1029,3 0,6 27 0,0
09.12.2018 17:00:00 16,5 12,0 8 4 12 7 E 1029,3 0,8 19 0,0
09.12.2018 16:00:00 17,0 12,1 8 4 14 8 E 1029,1 0,9 0 0,0
09.12.2018 15:00:00 17,5 12,2 8 5 18 10 E 1029,2 1,0 0 0,0
09.12.2018 14:00:00 18,2 12,0 12 7 19 10 E 1029,9 1,3 0 0,0
09.12.2018 13:00:00 17,4 11,0 13 7 19 10 E 1030,7 1,2 0 -
09.12.2018 12:00:00 17,3 10,4 12 7 21 11 E 1031,5 1,2 22 0,0
09.12.2018 11:00:00 17,1 10,0 13 7 19 10 ENE 1031,8 1,1 60 0,0
09.12.2018 10:00:00 15,1 9,9 6 3 12 6 NE 1031,4 0,8 2 0,0
09.12.2018 09:00:00 13,7 8,9 6 3 13 7 NE 1031,1 0,9 0 0,0
09.12.2018 08:00:00 12,7 7,1 6 3 13 7 NE 1030,9 0,8 0 0,0
09.12.2018 07:00:00 13,1 7,1 5 3 11 6 ENE 1030,6 0,8 0 -
09.12.2018 06:00:00 13,2 6,7 5 3 14 8 NE 1030,1 1,6 0 0,0
09.12.2018 05:00:00 13,4 7,4 6 3 13 7 NE 1030,1 4,6 0 0,0
09.12.2018 04:00:00 13,8 6,8 6 4 15 8 NE 1030,4 1,9 0 0,0
09.12.2018 03:00:00 14,4 7,3 8 4 16 9 NE 1030,4 1,8 0 0,0
09.12.2018 02:00:00 14,7 6,7 8 5 17 9 NE 1030,2 1,8 0 0,0
09.12.2018 01:00:00 15,1 6,8 9 5 18 10 NE 1030,3 2,2 0 -
09.12.2018 00:00:00 14,7 7,3 8 4 21 12 NNE 1030,3 2,3 0 0,0
08.12.2018 23:00:00 14,4 9,0 9 5 20 11 NNE 1030,3 2,2 0 0,0
08.12.2018 22:00:00 13,6 11,0 5 3 11 6 NNE 1030,1 1,8 0 0,0
08.12.2018 21:00:00 14,4 11,8 4 2 10 5 NNE 1029,7 1,9 0 0,0
08.12.2018 20:00:00 14,9 12,0 5 3 9 5 NNE 1029,5 1,4 0 0,0
08.12.2018 19:00:00 15,4 12,1 6 4 13 7 ENE 1029,0 1,3 0 -
08.12.2018 18:00:00 16,2 12,5 8 4 18 10 ENE 1028,6 1,4 27 0,0
08.12.2018 17:00:00 17,1 12,8 11 6 26 14 ENE 1028,1 1,2 20 0,0
08.12.2018 16:00:00 17,7 12,3 11 6 35 19 ENE 1027,6 2,0 0 0,0
08.12.2018 15:00:00 18,7 12,6 16 8 24 13 ENE 1027,0 5 0 0,0
08.12.2018 14:00:00 20,6 11,6 5 3 11 6 E 1026,9 3,8 0 0,0
08.12.2018 13:00:00 18,8 10,6 5 3 9 5 SW 1027,2 3,3 0 -
08.12.2018 12:00:00 17,2 10,8 3 2 9 5 WSW 1027,5 3,4 24 0,0
08.12.2018 11:00:00 16,6 9,0 4 2 10 5 WNW 1027,9 3,1 60 0,0
08.12.2018 10:00:00 14,1 8,5 2 1 5 3 WSW 1027,6 4,0 9 0,0
08.12.2018 09:00:00 11,7 6,8 3 2 9 5 WNW 1027,0 3,5 0 0,0
08.12.2018 08:00:00 10,2 5,8 4 2 12 6 N 1026,7 3,6 0 0,0
08.12.2018 07:00:00 10,7 7,7 4 2 8 4 W 1026,3 4,2 0 -
08.12.2018 06:00:00 11,1 8,7 4 2 8 5 NNW 1026,1 4,0 0 0,0
08.12.2018 05:00:00 - - - - - - - - - - -
08.12.2018 04:00:00 10,3 8,1 4 2 10 6 N 1027,0 2,3 0 0,0
08.12.2018 03:00:00 10,0 7,7 4 2 9 5 NNE 1027,1 1,1 0 0,0
08.12.2018 02:00:00 11,1 8,8 5 3 10 6 W 1027,1 0,7 0 0,0
08.12.2018 01:00:00 11,4 9,2 3 2 10 6 N 1027,9 0,9 0 -
08.12.2018 00:00:00 11,5 9,2 1 1 8 4 SSE 1027,9 0,5 0 0,0
07.12.2018 23:00:00 11,4 8,9 3 1 5 3 N 1028,0 0,7 0 0,0
07.12.2018 22:00:00 12,1 9,7 2 1 6 4 NW 1028,2 0,8 0 0,0
07.12.2018 21:00:00 12,4 9,8 3 1 7 4 NW 1028,2 1,0 0 0,0
07.12.2018 20:00:00 12,7 9,7 2 1 5 3 NNW 1028,3 0,9 0 0,0
07.12.2018 19:00:00 12,9 9,7 2 1 6 3 NNE 1028,0 1,0 0 -
07.12.2018 18:00:00 13,9 10,2 5 3 8 5 WSW 1028,0 1,0 24 0,0
07.12.2018 17:00:00 14,9 10,6 3 2 10 5 SW 1028,2 1,1 19 0,0
07.12.2018 16:00:00 15,6 11,0 6 3 10 6 SW 1028,4 1,3 0 0,0
07.12.2018 15:00:00 15,9 11,2 5 3 11 6 SSW 1028,2 1,2 0 0,0
07.12.2018 14:00:00 16,5 12,4 6 3 10 5 SSW 1028,9 1,1 0 0,0
07.12.2018 13:00:00 14,1 11,4 4 2 12 7 SSW 1029,4 1,3 0 -
07.12.2018 12:00:00 13,6 11,4 5 3 11 6 WSW 1030,1 1,6 0 0,0
07.12.2018 11:00:00 13,1 11,1 1 1 10 5 SSW 1030,2 1,2 0 0,0
07.12.2018 10:00:00 12,8 10,9 5 3 9 5 WSW 1029,8 1,3 0 0,0
07.12.2018 09:00:00 12,6 10,6 2 1 7 4 W 1029,3 1,0 0 0,0
07.12.2018 08:00:00 12,5 10,5 3 1 9 5 WNW 1028,9 1,0 0 0,0
07.12.2018 07:00:00 12,5 10,5 3 2 9 5 W 1028,5 1,0 0 -
07.12.2018 06:00:00 12,7 10,8 4 2 9 5 WNW 1028,3 0,6 0 0,0
07.12.2018 05:00:00 13,0 11,1 4 2 7 4 WNW 1028,2 0,4 0 0,0
07.12.2018 04:00:00 - - - - - - - - - - -
07.12.2018 03:00:00 13,6 11,7 1 1 6 4 S 1028,1 0,2 0 0,0
07.12.2018 02:00:00 13,8 11,7 3 1 6 3 WSW 1028,1 0,4 0 0,0
07.12.2018 01:00:00 13,9 11,8 1 1 7 4 NW 1028,3 0,2 0 -
07.12.2018 00:00:00 13,9 11,8 3 2 9 5 ENE 1028,6 0,7 0 0,0
06.12.2018 23:00:00 13,0 10,9 4 2 7 4 NNE 1028,5 1,0 0 0,0
06.12.2018 22:00:00 12,6 10,3 1 1 6 3 NW 1028,2 0,2 0 0,0
06.12.2018 21:00:00 12,7 10,3 1 1 4 2 NNW 1027,8 0,1 0 0,0
06.12.2018 20:00:00 13,0 10,4 0 0 4 2 N 1027,6 0,1 0 0,0
06.12.2018 19:00:00 14,2 11,6 2 1 9 5 NE 1027,2 0,1 0 -
06.12.2018 18:00:00 15,1 11,9 7 4 13 7 WSW 1026,9 0,3 8 0,0
06.12.2018 17:00:00 16,7 12,6 3 2 7 4 SSW 1026,7 0,9 20 0,0
06.12.2018 16:00:00 17,3 13,1 4 2 8 4 SW 1026,6 0,8 0 0,0
06.12.2018 15:00:00 17,6 12,7 2 1 8 5 SSW 1026,8 1,0 0 0,0
06.12.2018 14:00:00 18,5 13,0 5 3 9 5 ESE 1027,3 1,3 0 0,0
06.12.2018 13:00:00 16,9 12,4 5 3 11 6 E 1027,9 1,1 0 -
06.12.2018 12:00:00 16,4 12,5 6 3 10 5 E 1028,7 1,1 22 0,0
06.12.2018 11:00:00 - - - - - - - - - - -
06.12.2018 10:00:00 13,7 11,4 1 1 6 3 SSE 1028,3 1,1 9 0,0
06.12.2018 09:00:00 11,4 9,3 4 2 7 4 N 1027,5 1,1 0 0,0
06.12.2018 08:00:00 10,7 8,4 2 1 6 3 N 1027,2 1,1 0 0,0
06.12.2018 07:00:00 10,6 8,5 4 2 7 4 NE 1026,7 1,2 0 -
06.12.2018 06:00:00 10,6 8,4 1 1 5 3 W 1026,5 1,4 0 0,0
06.12.2018 05:00:00 10,8 8,5 0 0 1 1 N 1026,7 6 0 0,0
06.12.2018 04:00:00 10,9 8,7 1 1 5 3 W 1026,9 8 0 0,0
06.12.2018 03:00:00 - - - - - - - - - - -
06.12.2018 02:00:00 11,6 9,2 0 0 4 2 N 1027,1 0,5 0 0,0
06.12.2018 01:00:00 12,1 9,7 3 2 6 3 NNW 1027,7 0,7 0 -
06.12.2018 00:00:00 12,0 9,2 0 0 6 3 N 1027,8 0,6 0 0,0
05.12.2018 23:00:00 12,0 9,0 3 1 5 3 W 1028,0 0,6 0 0,0
05.12.2018 22:00:00 12,4 9,2 0 0 3 2 N 1027,7 0,7 0 0,0
05.12.2018 21:00:00 12,9 9,6 1 1 3 2 N 1027,5 0,7 0 0,0
05.12.2018 20:00:00 13,5 9,6 1 1 4 2 W 1027,1 0,6 0 0,0
05.12.2018 19:00:00 14,3 9,7 1 1 6 3 SE 1026,7 0,8 0 -
05.12.2018 18:00:00 16,0 10,8 4 2 6 4 WSW 1026,3 0,7 38 0,0
05.12.2018 17:00:00 17,3 10,6 3 2 6 3 SW 1026,0 0,8 20 0,0
05.12.2018 16:00:00 18,0 10,6 4 2 7 4 SW 1025,8 0,7 0 0,0
05.12.2018 15:00:00 18,7 11,0 4 2 7 4 SW 1025,8 0,7 0 0,0
05.12.2018 14:00:00 19,6 11,1 5 3 9 5 ESE 1026,2 1,0 0 0,0
05.12.2018 13:00:00 18,0 11,1 6 3 10 5 E 1026,8 1,0 0 -
05.12.2018 12:00:00 16,4 12,3 3 1 5 3 SSW 1027,2 0,7 26 0,0
05.12.2018 11:00:00 14,7 12,0 3 1 6 4 SW 1027,5 0,7 60 0,0
05.12.2018 10:00:00 13,2 11,1 1 1 3 2 ESE 1026,9 0,9 9 0,0
05.12.2018 09:00:00 11,1 9,0 1 1 4 2 W 1026,3 0,8 0 0,0
05.12.2018 08:00:00 10,6 8,5 2 1 6 3 NW 1025,9 1,0 0 0,0
05.12.2018 07:00:00 11,0 8,9 1 1 3 2 NE 1025,3 0,7 0 -
05.12.2018 06:00:00 11,3 9,2 2 1 4 2 N 1025,0 0,6 0 0,0
05.12.2018 05:00:00 11,5 9,2 0 0 5 3 N 1025,0 0,5 0 0,0
05.12.2018 04:00:00 - - - - - - - - - - -
05.12.2018 03:00:00 12,0 9,6 1 1 3 2 N 1025,1 0,4 0 0,0
05.12.2018 02:00:00 12,4 9,8 2 1 6 3 NW 1025,2 0,4 0 0,0
05.12.2018 01:00:00 13,0 10,2 3 2 9 5 W 1025,6 0,6 0 -
05.12.2018 00:00:00 13,4 10,2 2 1 9 5 E 1025,5 0,7 0 0,0
04.12.2018 23:00:00 14,1 10,6 5 3 13 7 NE 1025,5 0,7 0 0,0
04.12.2018 22:00:00 14,0 10,4 5 3 11 6 NE 1025,2 0,9 0 0,0
04.12.2018 21:00:00 13,7 10,3 4 2 9 5 NNE 1024,9 0,8 0 0,0
04.12.2018 20:00:00 13,7 9,9 2 1 5 3 N 1024,5 0,7 0 0,0
04.12.2018 19:00:00 14,7 10,5 0 0 3 2 N 1024,3 0,7 0 -
04.12.2018 18:00:00 16,2 11,1 0 0 4 2 N 1023,9 0,7 36 0,0
04.12.2018 17:00:00 17,3 11,6 2 1 6 3 SSW 1023,8 0,8 21 0,0
04.12.2018 16:00:00 18,3 12,3 3 2 6 3 SW 1023,9 0,7 0 0,0
04.12.2018 15:00:00 - - - - - - - - - - -
04.12.2018 14:00:00 - - - - - - - - - - -
04.12.2018 13:00:00 18,4 13,3 3 2 8 5 SSW 1024,7 0,8 0 -
04.12.2018 12:00:00 17,1 13,3 4 2 7 4 SW 1025,3 1,1 25 0,0
04.12.2018 11:00:00 16,0 13,2 1 1 5 3 SSW 1025,3 0,9 60 0,0
04.12.2018 10:00:00 15,4 13,1 1 1 4 2 SSE 1024,8 1,0 8 0,0

tt = temperature
td = dewpoint
ff = wind speed
fx = gusts
dd = wind direction
ppp = reduced air pressure
vv = visibility
sd = sunshine duration
rr = precipitation

Next stations